Weather History for K9L2 - October, 2012

Change the Weather History Date:

Thursday, October 18, 2012

  Actual Average (KWJF) Record (KWJF)
Temperature  
Mean Temperature 68 °F 62 °F  
Max Temperature 89 °F 79 °F 94 °F (1988)
Min Temperature 48 °F 45 °F 31 °F (1998)
Degree Days  
Heating Degree Days 0    
Month to date heating degree days  
Since 1 July heating degree days  
Cooling Degree Days 3    
Month to date cooling degree days  
Year to date cooling degree days  
Growing Degree Days 18 (Base 50)    
Moisture  
Dew Point 26 °F    
Average Humidity 27    
Maximum Humidity 67    
Minimum Humidity 6    
Precipitation  
Precipitation 0.00 in 0.02 in 0.68 in (2005)
Month to date precipitation 0.20  
Year to date precipitation 5.45  
Since 1 July precipitation 0.54  
Snow  
Snow 0.00 in - 0.00 in ()
Month to date snowfall  
Since 1 July snowfall  
Since 1 September snowfall  
Snow Depth -    
Sea Level Pressure  
Sea Level Pressure 30.01 in    
Wind  
Wind Speed 3 mph (SSE)    
Max Wind Speed 8 mph    
Max Gust Speed -    
Visibility 10 miles    
Events      
T = Trace of Precipitation, MM = Missing Value Source: NWS Daily Summary

Daily Weather History Graph

Daily Weather History Graph

Search for Another Location

Airport or City:

Trip Planner

Search our weather history database for the weather conditions in past years. The results will help you decide how hot, cold, wet, or windy it might be!

Date:

Astronomy

Oct. 18, 2012 Rise Set
Actual Time 7:00 AM PDT 6:12 PM PDT
Civil Twilight 6:34 AM PDT 6:37 PM PDT
Nautical Twilight 6:05 AM PDT 7:07 PM PDT
Astronomical Twilight 5:35 AM PDT 7:36 PM PDT
Moon 10:39 AM PDT (10/18) 8:59 PM PDT (10/18)
Length of Visible Light 12h 02m
Length of Day
11h 11m
Waxing Crescent, 15% of the Moon is Illuminated
Oct 18
Waxing Crescent
Oct 21
First Quarter
Oct 29
Full
Nov 6
Last Quarter
Nov 13
New

Hourly Weather History & Observations

Time (PDT) Temp. Dew Point Humidity Pressure Visibility Wind Dir Wind Speed Gust Speed Precip Events Conditions
12:55 AM 61.0 °F 27.0 °F 27% 29.97 in 10.0 mi NNW 4.6 mph - N/A   Clear
1:55 AM 57.0 °F 26.1 °F 30% 29.99 in 10.0 mi Calm Calm - N/A   Clear
2:55 AM 55.9 °F 25.0 °F 30% 29.99 in 10.0 mi South 4.6 mph - N/A   Clear
3:55 AM 54.0 °F 25.0 °F 33% 29.99 in 10.0 mi Calm Calm - N/A   Clear
4:55 AM 50.0 °F 24.1 °F 36% 30.00 in 10.0 mi Calm Calm - N/A   Clear
5:55 AM 50.0 °F 24.1 °F 36% 30.02 in 10.0 mi Calm Calm - N/A   Clear
6:55 AM 48.0 °F 24.1 °F 39% 30.04 in 10.0 mi NW 6.9 mph - N/A   Clear
7:55 AM 54.0 °F 25.0 °F 33% 30.06 in 10.0 mi Calm Calm - N/A   Clear
8:55 AM 59.0 °F 25.0 °F 27% 30.09 in 10.0 mi Calm Calm - N/A   Clear
9:55 AM 64.0 °F 30.0 °F 28% 30.09 in 10.0 mi Calm Calm - N/A   Clear
10:55 AM 75.0 °F 28.9 °F 18% 30.07 in 10.0 mi Calm Calm - N/A   Clear
11:55 AM 82.0 °F 25.0 °F 12% 30.05 in 10.0 mi East 5.8 mph - N/A   Clear
12:55 PM 84.9 °F 21.0 °F 10% 30.02 in 10.0 mi Calm Calm - N/A   Clear
1:55 PM 88.0 °F 16.0 °F 7% 29.99 in 10.0 mi NE 6.9 mph - N/A   Clear
2:55 PM 88.0 °F 14.0 °F 6% 29.98 in 10.0 mi ESE 4.6 mph - N/A   Clear
3:55 PM 88.0 °F 12.9 °F 6% 29.98 in 10.0 mi East 3.5 mph - N/A   Clear
4:55 PM 87.1 °F 12.9 °F 6% 29.97 in 10.0 mi Calm Calm - N/A   Clear
5:55 PM 82.0 °F 14.0 °F 8% 29.97 in 10.0 mi SSW 4.6 mph - N/A   Clear
6:55 PM 71.1 °F 12.9 °F 11% 29.99 in 10.0 mi WSW 5.8 mph - N/A   Clear
7:55 PM 72.0 °F 18.0 °F 13% 30.00 in 10.0 mi Calm Calm - N/A   Clear
8:55 PM 68.0 °F 46.0 °F 45% 30.00 in 10.0 mi South 8.1 mph - N/A   Clear
9:55 PM 64.9 °F 50.0 °F 58% 30.01 in 10.0 mi South 8.1 mph - N/A   Clear
10:55 PM 61.0 °F 48.9 °F 64% 30.01 in 10.0 mi South 5.8 mph - N/A   Clear
11:55 PM 61.0 °F 50.0 °F 67% 30.00 in 10.0 mi South 5.8 mph - N/A   Clear